Location: La Brionne
(46.1728°N, 1.7849°E)
Time: 09:00:53
(UTC+00:00)

ATLAS CENTAUR R/B - Pass Details

Date: 16 June 2021
Orbit: 472 x 671 km, 64.6° (Epoch: 13 June)

Event Time Altitude Azimuth Distance (km) Brightness Sun altitude
Rises 21:37:02 0° 327° (NNW) 2,770 6.9 -13.9°
Reaches altitude 10° 21:39:17 10° 333° (NNW) 1,903 5.5 -14.1°
Maximum altitude 21:43:27 47° 48° (NE) 806 2.2 -14.4°
Enters shadow 21:46:25 19° 116° (ESE) 1,486 3.0 -14.7°
